Weather in Kugesi

Russia / Chuvash Republic     56°01′57″N   47°17′51″E
temp.,
°C
wind,
m/s
gust,
m/s
humid.,
%
clouds,
%
prec.,
mm/h
press.,
hPa
HPBL,
m
6 march, sat
sat600:00−8w599597 1.1 1009375
03:00−10wnw489696 1.2 1011184
06:00−15wnw479787 0.1 1012121
09:00−13w359460 0.1 1014171
12:00−10wsw469050 0.0 1015393
15:00−9wsw478968 0.1 1013517
18:00−13wsw449556 0.0 101375
21:00−14w339757 0.1 101335
7 march, sun
sun700:00−16wsw339644 0.0 101222
03:00−16wsw239842 0.0 101121
06:00−16sw349888 0.1 101038
09:00−14ssw479588 0.1 1009216
12:00−9ssw599295 0.0 1006448
15:00−7s7118697 0.0 1003732
18:00−7s81394100 0.7 999871
21:00−7s81594100 1.8 995832
8 march, mon
mon800:00−5s81495100 1.0 991800
03:00−8wsw81688100 2.2 991712
06:00−11wsw7168697 0.1 992559
09:00−10wsw7148885 0.1 994604
12:00−7sw7118749 0.0 994766
15:00−6wsw7108574 0.1 995888
18:00−8w61285100 0.0 997474
21:00−9w61193100 0.1 999413
9 march, tue
tue900:00−12wnw489695 0.1 1001217
03:00−15wnw489791 0.1 1004149
06:00−17wnw479781 0.1 1006149
09:00−17wnw589582 0.1 1008271
12:00−14wnw579297 0.0 1010432
15:00−13wnw578999 0.1 1011645
18:00−16wnw3695100 0.1 1012117
21:00−18nw479798 0.1 1014147
10 march, wed
wed1000:00−21nw3510087 0.0 101565
03:00−22nw349990 0.1 101670
06:00−23nw369991 0.1 1017115
09:00−22nnw479793 0.1 1018275
12:00−19nw4693100 0.0 1020487
15:00−18nw5791100 0.1 1020607
18:00−22nw3497100 0.0 102141
21:00−25nw339864 0.0 102323